Flag for Canada Weather past 2 weeks in Toronto, Ontario, Canada

Now
45 °F

Passing clouds.


Feels Like: 38 °F
Forecast: 42 / 55 °F
Wind: 14 mph from Northwest

Location: Toronto Pearson International Airport

Current Time: May 22, 2015 at 5:38:23 AM

Latest Report: May 22, 2015 at 5:00 AM


Visibility: 15 mi

Pressure: 29.94 "Hg

Humidity: 66%

Dew point: 34 °F

Location of TorontoLocation

Historic Weather in Toronto — Graph

°F

Toronto temperature yesterday

Maximum temperature yesterday: 68 °F (at 2:00 PM)
Minimum temperature yesterday: 46 °F (at 6:00 AM)
Average temperature yesterday: 58 °F

Past Weeks' High & Low Weather Summary

 TemperatureHumidityPressure
High82 °F (May 18, 5:00 PM)100% (May 11, 11:00 PM)30.49 "Hg (May 11, 11:00 PM)
Low37 °F (May 20, 7:00 AM)24% (May 21, 2:00 PM)29.74 "Hg (May 12, 1:47 AM)
Average60 °F63%30.06 "Hg
* Reported May 7 4:00 AM — May 22 4:00 AM, Toronto, Weather by CustomWeather, © 2015

Note: Actual official high and low records may vary slightly from our data, if they occured in-between our weather recording intervals... More about our weather records

Advertising

Toronto weather history for previous 24 hours

 ConditionsComfort  
Time TempWeatherWind HumidityBarometerVisibility
4:00 AM
Fri, May 22
46 °FClear.13 mph57%29.91 "Hg15 mi
3:00 AM50 °FPassing clouds.17 mph43%29.89 "Hg15 mi
2:00 AM52 °FPassing clouds.12 mph41%29.88 "Hg15 mi
1:00 AM55 °FPassing clouds.14 mph44%29.88 "Hg15 mi
12:00 AM55 °FPassing clouds.10 mph47%29.86 "Hg15 mi
11:00 PM
Thu, May 21
61 °FPassing clouds.9 mph34%29.85 "Hg15 mi
10:00 PM59 °FPassing clouds.8 mph36%29.86 "Hg15 mi
9:00 PM61 °FBroken clouds.12 mph31%29.85 "Hg15 mi
8:00 PM63 °FBroken clouds.15 mph27%29.84 "Hg15 mi
7:00 PM64 °FBroken clouds.14 mph26%29.84 "Hg15 mi
6:00 PM68 °FPartly sunny.18 mph24%29.83 "Hg15 mi
5:00 PM68 °FPartly sunny.15 mph24%29.83 "Hg15 mi
4:00 PM66 °FPartly sunny.9 mph24%29.85 "Hg15 mi
3:00 PM66 °FScattered clouds.21 mph26%29.86 "Hg15 mi
2:00 PM68 °FPartly sunny.16 mph24%29.88 "Hg15 mi
1:00 PM64 °FPassing clouds.15 mph30%29.90 "Hg15 mi
12:00 PM63 °FPassing clouds.13 mph34%29.92 "Hg15 mi
11:00 AM61 °FPassing clouds.10 mph34%29.93 "Hg15 mi
10:00 AM57 °FPassing clouds.7 mph39%29.96 "Hg15 mi
9:00 AM55 °FPassing clouds.10 mph41%29.97 "Hg15 mi
8:00 AM54 °FScattered clouds.9 mph38%29.99 "Hg15 mi
7:00 AM50 °FPartly sunny.9 mph43%29.99 "Hg15 mi
6:00 AM46 °FPartly cloudy.8 mph50%30.00 "Hg15 mi
5:00 AM48 °FPassing clouds.6 mph43%29.99 "Hg15 mi
Weather by CustomWeather, © 2015

See weather overviewHow to use our weather pages